2006,03,01,00,05,-2.17,1,-0.47,1,-2.01,1,4.42,1,101.5,1,3.6,1,1.07,1,41.38,1,2.48,1,1008.5,1,12.63,1,151.23,1
2006,03,01,00,10,-2.06,1,-0.41,1,-1.84,1,4.52,1,101.2,1,3.6,1,1.67,1,54.43,1,2.86,1,1008.4,1,12.63,1,151.31,1
2006,03,01,00,15,-2.02,1,-0.46,1,-1.67,1,4.45,1,101.1,1,3.58,1,1.12,1,3.41,1,2.1,1,1008.4,1,12.63,1,151.36,1
2006,03,01,00,20,-1.73,1,-0.41,1,-1.6,1,4.43,1,101.7,1,3.58,1,1.3,1,49.62,1,2.48,1,1008.3,1,12.63,1,151.35,1
2006,03,01,00,25,-1.77,1,-0.41,1,-1.62,1,4.51,1,101.8,1,3.58,1,0.66,1,56.22,1,2.48,1,1008.3,1,12.63,1,151.3,1
2006,03,01,00,30,-2.14,1,-0.49,1,-1.72,1,4.46,1,101.9,1,3.58,1,0.75,1,69.79,1,1.71,1,1008.2,1,12.63,1,151.21,1
2006,03,01,00,35,-1.64,1,-0.41,1,-1.43,1,4.49,1,102,1,3.58,1,1.55,1,65.93,1,2.29,1,1008.1,1,12.63,1,151.07,1
2006,03,01,00,40,-1.4,1,-0.41,1,-1.34,1,4.57,1,102.3,1,3.58,1,1.05,1,63.04,1,2.1,1,1008.1,1,12.63,1,150.89,1
2006,03,01,00,45,-1.34,1,-0.35,1,-1.42,1,4.6,1,102.4,1,3.58,1,1.16,1,51.84,1,1.9,1,1008.2,1,12.63,1,150.66,1
2006,03,01,00,50,-1.3,1,-0.21,1,-1.43,1,4.7,1,102.2,1,3.58,1,1.16,1,49.99,1,1.9,1,1008.2,1,12.63,1,150.4,1
2006,03,01,00,55,-1.49,1,-0.39,1,-1.57,1,4.72,1,101.9,1,3.6,1,0.82,1,55.4,1,1.71,1,1008.2,1,12.62,1,150.09,1
2006,03,01,01,00,-1.78,1,-0.41,1,-1.73,1,4.71,1,101.8,1,3.6,1,0.82,1,53.7,1,1.71,1,1008.1,1,12.62,1,149.74,1
2006,03,01,01,05,-1.58,1,-0.41,1,-1.63,1,4.7,1,102,1,3.62,1,1.05,1,41.31,1,1.9,1,1008.1,1,12.62,1,149.35,1
2006,03,01,01,10,-1.45,1,-0.41,1,-1.61,1,4.74,1,101.9,1,3.63,1,0.97,1,35.63,1,1.9,1,1008.2,1,12.62,1,148.93,1
2006,03,01,01,15,-1.52,1,-0.41,1,-1.62,1,4.7,1,101.8,1,3.64,1,1.22,1,27.08,1,1.71,1,1008.3,1,12.62,1,148.47,1
2006,03,01,01,20,-1.48,1,-0.41,1,-1.52,1,4.64,1,101.7,1,3.65,1,1.44,1,31.87,1,1.9,1,1008.4,1,12.62,1,147.97,1
2006,03,01,01,25,-1.81,1,-0.52,1,-1.64,1,4.57,1,101.8,1,3.67,1,1.35,1,43,1,2.1,1,1008.3,1,12.62,1,147.45,1
2006,03,01,01,30,-1.95,1,-0.49,1,-1.75,1,4.54,1,102,1,3.71,1,1.28,1,41.35,1,1.9,1,1008.3,1,12.58,1,146.89,1
2006,03,01,01,35,-2.12,1,-0.42,1,-1.88,1,4.58,1,101.9,1,3.76,1,1.08,1,48.97,1,1.71,1,1008.4,1,12.61,1,146.3,1
2006,03,01,01,40,-2.17,1,-0.76,1,-1.98,1,4.55,1,101.6,1,3.79,1,1.19,1,63.61,1,1.9,1,1008.4,1,12.61,1,145.69,1
2006,03,01,01,45,-2.18,1,-1.13,1,-2.02,1,4.48,1,101.9,1,3.79,1,0.99,1,66.05,1,1.9,1,1008.3,1,12.61,1,145.05,1
2006,03,01,01,50,-2.15,1,-1.11,1,-1.69,1,4.48,1,102.3,1,3.79,1,0.94,1,79.6,1,1.52,1,1008.2,1,12.61,1,144.39,1
2006,03,01,01,55,-1.82,1,-0.62,1,-1.4,1,4.49,1,102.4,1,3.77,1,1.16,1,92.6,1,1.71,1,1008.2,1,12.61,1,143.7,1
2006,03,01,02,00,-1.63,1,-0.43,1,-1.33,1,4.5,1,102.6,1,3.77,1,0.84,1,87.6,1,1.33,1,1008.1,1,12.61,1,142.99,1
2006,03,01,02,05,-1.65,1,-0.46,1,-1.41,1,4.47,1,102.7,1,3.76,1,0.89,1,100.8,1,1.71,1,1008,1,12.61,1,142.26,1
2006,03,01,02,10,-1.58,1,-0.42,1,-1.6,1,4.47,1,102.6,1,3.75,1,0.44,1,110.2,1,1.14,1,1008,1,12.61,1,141.51,1
2006,03,01,02,15,-1.7,1,-0.43,1,-1.85,1,4.48,1,102.8,1,3.75,1,0.39,1,119.6,1,1.33,1,1007.9,1,12.61,1,140.74,1
2006,03,01,02,20,-1.31,1,-0.41,1,-1.56,1,4.55,1,103,1,3.75,1,0.71,1,109.6,1,1.33,1,1007.9,1,12.6,1,139.96,1
2006,03,01,02,25,-1.7,1,-0.6,1,-1.77,1,4.55,1,102.7,1,3.74,1,0.05,1,99.5,1,0.57,1,1008,1,12.6,1,139.15,1
2006,03,01,02,30,-2.13,1,-1.19,1,-2.04,1,4.51,1,102.8,1,3.73,1,0.01,1,80.7,1,0.38,1,1008,1,12.6,1,138.34,1
2006,03,01,02,35,-2.16,1,-1.23,1,-2.04,1,4.47,1,103,1,3.73,1,0.07,1,108.2,1,0.76,1,1008,1,12.6,1,137.51,1
2006,03,01,02,40,-2.17,1,-1.25,1,-2.04,1,4.41,1,102.9,1,3.71,1,0,1,0,1,0,1,1008,1,12.6,1,136.66,1
2006,03,01,02,45,-2.12,1,-1.27,1,-2.03,1,4.36,1,103,1,3.69,1,0,1,0,1,0,1,1008,1,12.6,1,135.81,1
2006,03,01,02,50,-1.45,1,-1.19,1,-1.73,1,4.4,1,103.3,1,3.68,1,0,1,0,1,0,1,1007.9,1,12.59,1,134.94,1
2006,03,01,02,55,-1.3,1,-1.13,1,-1.4,1,4.41,1,103.2,1,3.66,1,0,1,0,1,0,1,1007.9,1,12.59,1,134.06,1
2006,03,01,03,00,-1.29,1,-1.22,1,-1.31,1,4.34,1,103.2,1,3.64,1,0,1,0,1,0,1,1007.9,1,12.59,1,133.17,1
2006,03,01,03,05,-0.97,1,-1.2,1,-1.22,1,4.3,1,103.1,1,3.62,1,0,1,0,1,0,1,1007.9,1,12.59,1,132.28,1
2006,03,01,03,10,-0.84,1,-1.22,1,-1.08,1,4.26,1,103,1,3.6,1,0,1,0,1,0,1,1007.9,1,12.59,1,131.37,1
2006,03,01,03,15,-0.4,1,-1.18,1,-0.43,1,4.26,1,103.3,1,3.59,1,0.01,1,110.1,1,0.38,1,1007.8,1,12.59,1,130.45,1
2006,03,01,03,20,0.05,1,-0.96,1,-0.11,1,4.2,1,103.3,1,3.58,1,0.02,1,110.1,1,0.38,1,1007.7,1,12.58,1,129.53,1
2006,03,01,03,25,0.07,1,-0.9,1,-0.23,1,4.13,1,103.4,1,3.58,1,0.48,1,157.8,1,0.95,1,1007.6,1,12.58,1,128.6,1
2006,03,01,03,30,-0.1,1,-0.44,1,-0.4,1,4.21,1,103.9,1,3.58,1,0.26,1,161,1,1.33,1,1007.6,1,12.58,1,127.66,1
2006,03,01,03,35,0.14,1,-0.41,1,-0.37,1,4.3,1,103.8,1,3.6,1,0.02,1,158.4,1,0.38,1,1007.6,1,12.58,1,126.71,1
2006,03,01,03,40,-0.24,1,-0.41,1,-0.41,1,4.25,1,103.7,1,3.62,1,0.36,1,209.2,1,1.14,1,1007.6,1,12.58,1,125.76,1
2006,03,01,03,45,-0.21,1,-0.28,1,-0.41,1,4.39,1,104,1,3.64,1,1.18,1,220.3,1,1.71,1,1007.6,1,12.58,1,124.81,1
2006,03,01,03,50,0.55,1,0.51,1,0.24,1,4.76,1,103.7,1,3.67,1,1.64,1,213.6,1,2.29,1,1007.6,1,12.58,1,123.85,1
2006,03,01,03,55,1.18,1,1.23,1,1.04,1,5.07,1,102.7,1,3.7,1,1.71,1,215.4,1,2.48,1,1007.6,1,12.58,1,122.88,1
2006,03,01,04,00,1.3,1,1.57,1,1.3,1,5.31,1,101.6,1,3.74,1,1.77,1,222.3,1,2.48,1,1007.7,1,12.57,1,121.91,1
2006,03,01,04,05,1.3,1,1.75,1,1.04,1,5.63,1,100.3,1,3.8,1,1.76,1,228.3,1,2.29,1,1007.7,1,12.57,1,120.94,1
2006,03,01,04,10,0.78,1,1.52,1,0.37,1,5.94,1,98.4,1,3.87,1,1.48,1,250.2,1,1.9,1,1007.9,1,12.57,1,119.96,1
2006,03,01,04,15,-0.19,1,0.7,1,-0.42,1,5.89,1,97.5,1,3.96,1,2.25,1,329.8,1,5.52,1,1008.1,1,12.57,1,118.97,1
2006,03,01,04,20,-0.87,1,-0.34,1,-1.21,1,5.58,1,98.8,1,4.05,1,3.68,1,0.03,1,5.9,1,1008.5,1,12.56,1,117.99,1
2006,03,01,04,25,-1.37,1,-0.77,1,-1.55,1,5.52,1,98.9,1,4.14,1,2.51,1,0.31,1,4.38,1,1008.5,1,12.56,1,117,1
2006,03,01,04,30,-2.15,1,-1.66,1,-2.04,1,5.2,1,98.9,1,4.25,1,2.9,1,349.4,1,4.95,1,1008.7,1,12.52,1,116.01,1
2006,03,01,04,35,-2.17,1,-2.34,1,-2.17,1,4.8,1,99.4,1,4.37,1,3.48,1,15.2,1,5.52,1,1008.9,1,12.55,1,115.01,1
2006,03,01,04,40,-2.25,1,-2.62,1,-2.77,1,4.58,1,100,1,4.45,1,2.28,1,13.84,1,4.38,1,1009,1,12.56,1,114.02,1
2006,03,01,04,45,-2.33,1,-2.13,1,-2.85,1,4.53,1,100.1,1,4.49,1,2.41,1,12.62,1,4.38,1,1009.2,1,12.56,1,113.02,1
2006,03,01,04,50,-2.39,1,-2.04,1,-2.79,1,4.49,1,100.2,1,4.51,1,2.96,1,17.8,1,5.71,1,1009.3,1,12.55,1,112.02,1
2006,03,01,04,55,-2.17,1,-1.7,1,-2.05,1,4.49,1,100.7,1,4.51,1,3.66,1,23.68,1,4.95,1,1009.5,1,12.55,1,111.02,1
2006,03,01,05,00,-2.17,1,-1.3,1,-2.04,1,4.49,1,101.1,1,4.5,1,3.77,1,29.69,1,6.66,1,1009.5,1,12.55,1,110.01,1
2006,03,01,05,05,-1.68,1,-0.91,1,-1.77,1,4.6,1,101.9,1,4.49,1,4.2,1,25.68,1,6.28,1,1009.5,1,12.55,1,109.01,1
2006,03,01,05,10,-1.42,1,-0.52,1,-1.47,1,4.68,1,102.1,1,4.46,1,3.74,1,27.27,1,5.71,1,1009.6,1,12.54,1,108,1
2006,03,01,05,15,-2.06,1,-0.67,1,-1.91,1,4.75,1,102.4,1,4.44,1,2.98,1,34.11,1,5.9,1,1009.7,1,12.54,1,107,1
2006,03,01,05,20,-2.17,1,-0.68,1,-2.04,1,4.8,1,102.5,1,4.42,1,2.97,1,35.35,1,5.14,1,1009.7,1,12.54,1,105.99,1
2006,03,01,05,25,-2.15,1,-0.47,1,-1.93,1,4.83,1,102.6,1,4.41,1,3.05,1,33.96,1,4.76,1,1009.7,1,12.54,1,104.98,1
2006,03,01,05,30,-2.11,1,-0.41,1,-1.84,1,4.91,1,102.3,1,4.39,1,3.16,1,39.79,1,4.57,1,1009.7,1,12.54,1,103.97,1
2006,03,01,05,35,-1.83,1,-0.39,1,-1.53,1,5.02,1,101.6,1,4.37,1,2.93,1,39.68,1,4.38,1,1010,1,12.54,1,102.96,1
2006,03,01,05,40,-1.74,1,-0.2,1,-1.49,1,5.15,1,101.1,1,4.35,1,2.94,1,34.61,1,4.95,1,1010,1,12.53,1,101.96,1
2006,03,01,05,45,-1.31,1,0.02,1,-1.22,1,5.26,1,100.4,1,4.35,1,3.19,1,40.11,1,4.95,1,1010.1,1,12.53,1,100.95,1
2006,03,01,05,50,-1.31,1,-0.21,1,-1.21,1,5.3,1,99.8,1,4.34,1,3.06,1,40.37,1,6.47,1,1010.1,1,12.53,1,99.94,1
2006,03,01,05,55,-1.3,1,-0.01,1,-0.97,1,5.42,1,99,1,4.34,1,2.8,1,38.51,1,5.14,1,1010.1,1,12.53,1,98.93,1
2006,03,01,06,00,-1.46,1,-0.39,1,-1.25,1,5.52,1,98.1,1,4.35,1,2.59,1,46.83,1,4.76,1,1010.2,1,12.52,1,97.93,1
2006,03,01,06,05,-1.63,1,-0.41,1,-1.33,1,5.57,1,96.9,1,4.35,1,3.16,1,52.32,1,4.95,1,1010.3,1,12.52,1,96.92,1
2006,03,01,06,10,-1.93,1,-0.47,1,-1.32,1,5.59,1,95.6,1,4.38,1,2.93,1,58.13,1,4.57,1,1010.2,1,12.52,1,95.91,1
2006,03,01,06,15,-1.49,1,-0.41,1,-1.23,1,5.63,1,93.6,1,4.4,1,3.38,1,65.73,1,5.33,1,1010.1,1,12.52,1,94.91,1
2006,03,01,06,20,-1.31,1,-0.41,1,-1.23,1,5.75,1,91.6,1,4.42,1,2.44,1,47.97,1,4.57,1,1010.2,1,12.52,1,93.91,1
2006,03,01,06,25,-1.3,1,-0.55,1,-1.19,1,5.79,1,89.8,1,4.44,1,2.54,1,61.17,1,3.62,1,1010.3,1,12.52,1,92.91,1
2006,03,01,06,30,0.28,1,-0.94,1,0.28,1,5.79,1,89.1,1,4.48,1,2.29,1,62.19,1,3.24,1,1010.3,1,12.52,1,91.91,1
2006,03,01,06,35,0.29,1,-1.23,1,0.28,1,5.79,1,88.4,1,4.5,1,1.71,1,70.3,1,3.24,1,1010.3,1,12.51,1,90.91,1
2006,03,01,06,40,1.83,1,-1.28,1,1.83,1,5.74,1,87.9,1,4.52,1,1.77,1,68.88,1,2.67,1,1010.4,1,12.51,1,89.45,1
2006,03,01,06,45,5.84,1,-0.9,1,5.84,1,5.74,1,86.7,1,4.55,1,2.62,1,70.1,1,4.19,1,1010.4,1,12.51,1,88.57,1
2006,03,01,06,50,10.98,1,1.97,1,10.98,1,5.79,1,86,1,4.57,1,2.29,1,67.46,1,4,1,1010.5,1,12.51,1,87.65,1
2006,03,01,06,55,17.15,1,4.69,1,17.15,1,5.82,1,85.2,1,4.59,1,2.02,1,76.4,1,3.43,1,1010.5,1,12.51,1,86.72,1
2006,03,01,07,00,23.49,1,1,1,23.49,1,5.8,1,85.6,1,4.62,1,2.15,1,78.8,1,3.81,1,1010.5,1,12.51,1,85.77,1
2006,03,01,07,05,30.87,1,5.62,1,30.87,1,5.82,1,85.5,1,4.64,1,2.09,1,70.3,1,3.24,1,1010.6,1,12.52,1,84.81,1
2006,03,01,07,10,41.7,1,11.38,1,41.26,1,5.89,1,85.2,1,4.67,1,2.63,1,64.24,1,3.81,1,1010.7,1,12.55,1,83.85,1
2006,03,01,07,15,49.88,1,17.26,1,48.19,1,5.98,1,85.5,1,4.71,1,0.9,1,49,1,2.67,1,1010.9,1,12.6,1,82.89,1
2006,03,01,07,20,56.03,1,21.01,1,52.97,1,6.08,1,85.3,1,4.74,1,1.25,1,60.31,1,2.29,1,1011.1,1,12.66,1,81.93,1
2006,03,01,07,25,51.37,1,13.69,1,49.1,1,6.19,1,85.3,1,4.8,1,2.18,1,59.76,1,3.62,1,1011.1,1,12.7,1,80.97,1
2006,03,01,07,30,48.36,1,4.17,1,48.36,1,6.22,1,86.2,1,4.86,1,1.61,1,57.83,1,3.24,1,1011.2,1,12.61,1,80.01,1
2006,03,01,07,35,75.21,3,1.91,3,75.21,3,6.23,1,86.2,1,4.98,1,1.56,1,67.23,1,2.67,1,1011.1,1,12.67,1,79.05,1
2006,03,01,07,40,80.07,3,1.96,3,80.07,3,6.16,1,86.1,1,5.07,1,1.87,1,62.69,1,3.24,1,1011.2,1,12.76,1,78.1,1
2006,03,01,07,45,112.38,3,44.76,3,103.69,3,6.3,1,86.1,1,5.14,1,2.07,1,68.57,1,3.05,1,1011.2,1,12.92,1,77.15,1
2006,03,01,07,50,177.95,3,123.29,3,152.68,3,6.39,1,85.3,1,5.23,1,2.27,1,50.53,1,3.62,1,1011.4,1,13.38,1,76.21,1
2006,03,01,07,55,216.72,3,185.72,3,173.73,3,6.61,1,84.6,1,5.33,1,2.22,1,54.24,1,3.43,1,1011.5,1,13.73,1,75.27,1
2006,03,01,08,00,173.14,3,63.59,3,159.71,3,6.79,1,83.2,1,5.45,1,2.56,1,58.31,1,4,1,1011.7,1,13.65,1,74.34,1
2006,03,01,08,05,157.99,3,92.15,3,133.83,3,7,1,81.7,1,5.61,1,2.24,1,64.33,1,4.19,1,1011.7,1,13.67,1,73.41,1
2006,03,01,08,10,158.9,3,3.21,3,158.9,3,7,1,80.8,1,5.79,1,2.26,1,62.03,1,4,1,1011.7,1,13.5,1,72.48,1
2006,03,01,08,15,148.94,3,15.04,3,147.44,3,7.03,1,80.2,1,5.97,1,2.84,1,61.8,1,4.57,1,1011.9,1,13.54,1,71.56,1
2006,03,01,08,20,124.97,3,17.05,3,122.15,3,7.07,1,80.1,1,6.15,1,2.62,1,67.95,1,4.76,1,1011.9,1,13.45,1,70.65,1
2006,03,01,08,25,124.11,3,3.41,3,124.11,3,7.08,1,79.3,1,6.32,1,3.39,1,67.88,1,5.33,1,1012,1,13.36,1,69.75,1
2006,03,01,08,30,127.75,3,2.44,3,127.75,3,7.07,1,78.7,1,6.49,1,3.24,1,63.28,1,5.71,1,1012,1,13.35,1,68.85,1
2006,03,01,08,35,134.26,3,5.21,3,134.26,3,7.11,1,77.4,1,6.64,1,3.75,1,60,1,5.52,1,1011.9,1,13.36,1,67.96,1
2006,03,01,08,40,144.87,3,-0.01,3,144.87,3,7.14,1,77,1,6.79,1,3.56,1,59.3,1,5.52,1,1011.9,1,13.37,1,67.07,1
2006,03,01,08,45,147.29,3,2.51,3,147.29,3,7.14,1,77,1,6.92,1,3.4,1,61.07,1,5.9,1,1012,1,13.45,1,66.2,1
2006,03,01,08,50,129.89,3,-0.81,3,129.89,3,7.16,1,77.1,1,7.04,1,3.33,1,53.46,1,5.14,1,1012.1,1,13.37,1,65.33,1
2006,03,01,08,55,128.75,3,1.38,3,128.75,3,7.1,1,75.9,1,7.15,1,3.7,1,58.23,1,6.09,1,1012.1,1,13.4,1,64.47,1
2006,03,01,09,00,150.15,3,-0.9,3,150.15,3,7.16,1,75.3,1,7.26,1,3.37,1,66.65,1,5.14,1,1012.1,1,13.77,1,63.62,1
2006,03,01,09,05,146.32,3,-0.84,3,146.32,3,7.22,1,75,1,7.36,1,2.81,1,64.41,1,4.76,1,1012.2,1,13.76,1,62.78,1
2006,03,01,09,10,168.6,3,0.23,3,168.6,3,7.26,1,73.8,1,7.46,1,3.47,1,60.88,1,5.52,1,1012.1,1,13.81,1,61.95,1
2006,03,01,09,15,204.95,3,-0.46,3,204.95,3,7.24,1,73.7,1,7.54,1,3.61,1,67.29,1,5.33,1,1012.1,1,13.81,1,61.13,1
2006,03,01,09,20,257.11,3,6,3,257.11,3,7.35,1,73.7,1,7.63,1,3.59,1,56.1,1,5.14,1,1012.1,1,13.8,1,60.32,1
2006,03,01,09,25,330.5,3,73.97,3,290.88,3,7.45,1,73.1,1,7.72,1,3.41,1,69.2,1,5.33,1,1012.1,1,13.8,1,59.52,1
2006,03,01,09,30,350.05,3,73.93,3,306.44,3,7.64,1,71.9,1,7.82,1,3.27,1,62.92,1,5.52,1,1012.2,1,13.79,1,58.74,1
2006,03,01,09,35,356.11,3,29.96,3,343.41,3,7.73,1,71.2,1,7.93,1,3.52,1,60.49,1,5.52,1,1012.2,1,13.78,1,57.96,1
2006,03,01,09,40,334.69,3,47.92,3,314.62,3,7.98,1,69.89,1,8.07,1,2.95,1,57.51,1,6.47,1,1012.4,1,13.77,1,57.2,1
2006,03,01,09,45,284.23,3,6.05,3,284.23,3,7.9,1,68.87,1,8.22,1,4.09,1,64.22,1,5.9,1,1012.4,1,13.77,1,56.46,1
2006,03,01,09,50,333.23,3,22.49,3,326.02,3,7.97,1,69.99,1,8.38,1,3.13,1,64.92,1,5.52,1,1012.4,1,13.76,1,55.73,1
2006,03,01,09,55,379.02,3,51.15,3,351.95,3,8.02,1,70.3,1,8.55,1,3.17,1,67.25,1,5.52,1,1012.4,1,13.76,1,55.01,1
2006,03,01,10,00,357.06,3,42.38,3,333.78,3,8.22,1,70.3,1,8.72,1,2.55,1,67.35,1,5.33,1,1012.4,1,13.75,1,54.31,1
2006,03,01,10,05,366.6,3,14.88,3,360.44,3,8.28,1,68.87,1,8.89,1,3.43,1,65.97,1,5.14,1,1012.5,1,13.75,1,53.62,1
2006,03,01,10,10,334.25,3,13.2,3,334.25,3,8.23,1,69.78,1,9.06,1,2.81,1,81.4,1,4.38,1,1012.6,1,13.75,1,52.95,1
2006,03,01,10,15,323.55,3,4.49,3,323.55,3,8.24,1,70,1,9.23,1,2.54,1,73.8,1,4.19,1,1012.7,1,13.74,1,52.3,1
2006,03,01,10,20,487.85,11,224.14,10,329.44,10,8.52,1,68.6,1,9.4,1,2.45,1,72.4,1,4.38,1,1012.7,1,13.74,1,51.67,1
2006,03,01,10,25,477.68,3,124.77,3,385.08,3,8.56,1,65.65,1,9.56,1,3.52,1,67.75,1,5.71,1,1012.7,1,13.73,1,51.05,1
2006,03,01,10,30,406.3,3,66.93,3,363.91,3,8.57,1,65.2,1,9.74,1,3.36,1,64.79,1,5.52,1,1012.7,1,13.72,1,50.46,1
2006,03,01,10,35,338.39,3,28.34,3,324.56,3,8.56,1,62.95,1,9.95,1,3.4,1,67.53,1,5.14,1,1012.6,1,13.72,1,49.88,1
2006,03,01,10,40,498.48,3,127.25,3,406.47,3,8.42,1,62.8,1,10.13,1,3.78,1,66.12,1,5.14,1,1012.7,1,13.72,1,49.33,1
2006,03,01,10,45,388.38,3,12.54,3,388.38,3,8.55,1,62.77,1,10.29,1,2.87,1,47.54,1,4.76,1,1012.8,1,13.72,1,48.8,1
2006,03,01,10,50,563.93,11,182.36,10,418.97,10,8.84,1,62.46,1,10.44,1,1.83,1,54.65,1,3.62,1,1012.8,1,13.72,1,48.29,1
2006,03,01,10,55,649.85,15,370.21,14,366.61,14,9.37,1,60.86,1,10.58,1,2.33,1,71.9,1,4.38,1,1012.9,1,13.71,1,47.8,1
2006,03,01,11,00,534.71,11,204.15,10,363.16,10,9.25,1,60.21,1,10.76,1,3.14,1,72.9,1,5.33,1,1012.9,1,13.7,1,47.34,1
2006,03,01,11,05,601.92,11,252.16,10,404.96,10,9.11,1,59.79,1,10.96,1,3.17,1,59.31,1,4.76,1,1012.9,1,13.69,1,46.9,1
2006,03,01,11,10,465.83,3,48.6,3,422.91,3,9.12,1,58.33,1,11.18,1,2.92,1,56.01,1,4.57,1,1012.8,1,13.68,1,46.49,1
2006,03,01,11,15,459.97,11,60.98,10,395.75,10,9.26,1,57.55,1,11.4,1,3.62,1,66.37,1,5.14,1,1012.8,1,13.68,1,46.1,1
2006,03,01,11,20,730.82,11,644.58,10,248.96,10,9.4,1,58.04,1,11.6,1,2.27,1,66.52,1,4.57,1,1012.6,1,13.67,1,45.74,1
2006,03,01,11,25,728.5,3,710.48,3,212.92,3,9.7,1,56.69,1,11.79,1,2.55,1,69.83,1,4.38,1,1012.7,1,13.66,1,45.41,1
2006,03,01,11,30,722.91,3,713.54,3,201.76,3,9.58,1,56.12,1,11.99,1,2.71,1,73.1,1,4,1,1012.8,1,13.65,1,45.11,1
2006,03,01,11,35,723.43,3,722.83,3,194.43,3,9.83,1,56.14,1,12.22,1,2.87,1,83,1,4.95,1,1012.7,1,13.64,1,44.83,1
2006,03,01,11,40,728.28,11,743.88,10,180.35,10,9.83,1,55.84,1,12.45,1,2.82,1,101,1,4.19,1,1012.7,1,13.64,1,44.59,1
2006,03,01,11,45,729.82,3,751.23,3,174.84,3,9.96,1,55.53,1,12.69,1,2.16,1,77.5,1,3.81,1,1012.7,1,13.63,1,44.37,1
2006,03,01,11,50,730.48,3,753.75,3,172.29,3,10.18,1,54.74,1,12.93,1,2.23,1,88.9,1,4.19,1,1012.6,1,13.62,1,44.19,1
2006,03,01,11,55,731.84,3,759.88,3,167.44,3,10.27,1,54.13,1,13.16,1,2.44,1,82.9,1,4.95,1,1012.6,1,13.62,1,44.03,1
2006,03,01,12,00,730.28,3,752.74,3,169.71,3,10.43,1,53.78,1,13.39,1,2.73,1,71,1,4.38,1,1012.5,1,13.61,1,43.91,1
2006,03,01,12,05,735.85,3,766.8,3,163.76,3,10.56,1,54.54,1,13.62,1,2.04,1,72.3,1,3.81,1,1012.6,1,13.6,1,43.81,1
2006,03,01,12,10,730.57,3,759.41,3,164.33,3,11.11,1,53.95,1,13.84,1,1.65,1,86.5,1,4,1,1012.6,1,13.6,1,43.75,1
2006,03,01,12,15,734.97,3,769.12,3,159.95,3,11.41,1,52.51,1,14.06,1,1.92,1,102.5,1,4.38,1,1012.5,1,13.59,1,43.72,1
2006,03,01,12,20,736.36,3,771.12,3,157.81,3,11.07,1,54.18,1,14.27,1,2.56,1,92.8,1,3.81,1,1012.4,1,13.58,1,43.72,1
2006,03,01,12,25,737.08,3,774.48,3,155.52,3,11.16,1,54.47,1,14.48,1,2.99,1,83.7,1,4.76,1,1012.2,1,13.58,1,43.75,1
2006,03,01,12,30,735.88,3,775.68,3,152.22,3,10.92,1,56.1,1,14.68,1,3.26,1,114,1,5.71,1,1012,1,13.58,1,43.81,1
2006,03,01,12,35,737.59,3,778.36,3,150.71,3,10.77,1,57.09,1,14.86,1,3.4,1,122.1,1,4.95,1,1011.9,1,13.58,1,43.91,1
2006,03,01,12,40,729.29,11,765.91,10,151.41,10,10.81,1,56.99,1,15.01,1,2.86,1,97.9,1,4.19,1,1011.8,1,13.58,1,44.04,1
2006,03,01,12,45,732.18,3,777.73,3,149.3,3,11.13,1,56.43,1,15.12,1,3.16,1,85.5,1,4.76,1,1011.8,1,13.58,1,44.19,1
2006,03,01,12,50,731.93,3,785.1,3,146.53,3,11.18,1,56.04,1,15.21,1,3.23,1,76.3,1,5.14,1,1011.7,1,13.58,1,44.38,1
2006,03,01,12,55,729.2,3,788.98,3,144.51,3,11.42,1,55.1,1,15.29,1,2.43,1,80.1,1,3.43,1,1011.7,1,13.58,1,44.6,1
2006,03,01,13,00,725.5,3,787.49,3,142.47,3,11.31,1,54.65,1,15.37,1,3.86,1,111.3,1,5.14,1,1011.5,1,13.57,1,44.84,1
2006,03,01,13,05,722.92,3,789.86,3,141.08,3,11.37,1,53.78,1,15.44,1,3.12,1,87.5,1,4.76,1,1011.7,1,13.57,1,45.12,1
2006,03,01,13,10,715.73,11,786.37,10,139.49,10,11.43,1,53.22,1,15.49,1,2.59,1,91.9,1,4.19,1,1011.7,1,13.57,1,45.42,1
2006,03,01,13,15,712.25,3,788.99,3,138.42,3,11.64,1,53.28,1,15.55,1,2.03,1,100.6,1,4,1,1011.6,1,13.57,1,45.76,1
2006,03,01,13,20,707.59,11,784.36,10,140.05,10,11.55,1,53.6,1,15.6,1,3.12,1,93.8,1,4.19,1,1011.6,1,13.57,1,46.12,1
2006,03,01,13,25,700.81,3,776.32,3,143.35,3,11.6,1,53.81,1,15.65,1,3.02,1,82.8,1,4.57,1,1011.6,1,13.57,1,46.5,1
2006,03,01,13,30,693.58,11,770.84,10,143.49,10,11.36,1,55.1,1,15.72,1,3.11,1,114.8,1,4.38,1,1011.4,1,13.56,1,46.92,1
2006,03,01,13,35,686.11,3,766.61,3,142.67,3,11.38,1,55.47,1,15.8,1,3.17,1,114.4,1,5.14,1,1011.4,1,13.57,1,47.36,1
2006,03,01,13,40,681.8,11,770.24,10,141.81,10,11.54,1,55.67,1,15.83,1,2.14,1,99.7,1,3.81,1,1011.4,1,13.57,1,47.82,1
2006,03,01,13,45,673.37,3,769.87,3,140.55,3,11.89,1,54.74,1,15.85,1,2.24,1,79.2,1,3.43,1,1011.2,1,13.57,1,48.31,1
2006,03,01,13,50,666.39,3,769.96,3,138.67,3,11.93,1,55.2,1,15.88,1,3.4,1,102.5,1,4.95,1,1011.1,1,13.56,1,48.82,1
2006,03,01,13,55,658.96,3,765.16,3,138.82,3,11.73,1,55.48,1,15.91,1,2.94,1,89.1,1,4.76,1,1011.1,1,13.56,1,49.35,1
2006,03,01,14,00,648.05,3,757.15,3,140.04,3,11.79,1,55.9,1,15.94,1,2.23,1,96.2,1,3.81,1,1011.1,1,13.56,1,49.9,1
2006,03,01,14,05,644.99,3,759.85,3,142.05,3,11.96,1,55.75,1,15.98,1,3.16,1,73.7,1,4.95,1,1011.2,1,13.56,1,50.48,1
2006,03,01,14,10,635.95,3,752.78,3,143.35,3,11.87,1,55.23,1,16.02,1,3.37,1,87.4,1,5.33,1,1011.2,1,13.56,1,51.07,1
2006,03,01,14,15,631.38,3,746.03,3,149.75,3,11.66,1,55.4,1,16.06,1,3.25,1,99.8,1,5.14,1,1011.2,1,13.56,1,51.69,1
2006,03,01,14,20,605.47,15,631.86,14,189.59,14,11.71,1,55.33,1,16.1,1,3.34,1,78.5,1,5.14,1,1011.3,1,13.56,1,52.32,1
2006,03,01,14,25,556.41,19,480.42,18,224.07,18,11.62,1,55.12,1,16.14,1,3.69,1,104.3,1,5.71,1,1011.2,1,13.56,1,52.97,1
2006,03,01,14,30,519.55,19,381.99,18,249.85,18,11.56,1,56.01,1,16.17,1,3.02,1,93.7,1,4.57,1,1011.3,1,13.56,1,53.64,1
2006,03,01,14,35,508.64,15,319.58,14,282.63,14,12.06,1,54.76,1,16.19,1,2.87,1,120.8,1,4.95,1,1011.2,1,13.56,1,54.33,1
2006,03,01,14,40,509.51,19,314.79,18,284.51,18,11.89,1,54.56,1,16.19,1,2.67,1,98.7,1,4.19,1,1011.2,1,13.57,1,55.03,1
2006,03,01,14,45,459.71,19,242.82,18,282.35,18,11.59,1,54.63,1,16.19,1,4.2,1,112.5,1,5.52,1,1011,1,13.57,1,55.75,1
2006,03,01,14,50,404.14,19,181.61,18,267.03,18,11.3,1,55.83,1,16.19,1,3.45,1,99.5,1,5.14,1,1011,1,13.57,1,56.48,1
2006,03,01,14,55,342.03,15,115.68,14,248.21,14,11.67,1,54.3,1,16.18,1,2.91,1,82,1,4.57,1,1011,1,13.58,1,57.23,1
2006,03,01,15,00,319.71,11,74.96,10,260.59,10,11.72,1,53.47,1,16.14,1,2.39,1,100.4,1,4.19,1,1011.1,1,13.59,1,57.99,1
2006,03,01,15,05,316.44,3,69.84,3,264.38,3,11.64,1,53.67,1,16.09,1,2.78,1,91.3,1,4.38,1,1011.1,1,13.59,1,58.76,1
2006,03,01,15,10,233.52,3,7.27,3,220.92,3,11.31,1,53.35,1,16.03,1,3.48,1,103.1,1,4.76,1,1011.1,1,13.59,1,59.55,1
2006,03,01,15,15,200.72,3,1.62,3,192.49,3,10.98,1,54.78,1,15.95,1,3.63,1,112.5,1,4.95,1,1011.1,1,13.6,1,60.34,1
2006,03,01,15,20,200.91,3,9.24,3,184.11,3,10.92,1,55.46,1,15.84,1,3.09,1,93.9,1,4.57,1,1011.1,1,13.61,1,61.15,1
2006,03,01,15,25,188.78,3,1.32,3,180.43,3,10.89,1,54.89,1,15.71,1,2.85,1,104.6,1,4.95,1,1011.1,1,13.62,1,61.97,1
2006,03,01,15,30,182.51,3,-0.63,3,182.38,3,10.88,1,54.95,1,15.56,1,2.91,1,101.3,1,4.76,1,1011.1,1,13.63,1,62.8,1
2006,03,01,15,35,198.29,3,-0.2,3,198.29,3,10.92,1,53.95,1,15.39,1,2.87,1,93,1,5.33,1,1011.1,1,13.63,1,63.64,1
2006,03,01,15,40,193.89,3,-0.69,3,193.89,3,10.83,1,53.44,1,15.21,1,2.97,1,103.5,1,4.76,1,1010.9,1,13.63,1,64.49,1
2006,03,01,15,45,184.52,3,-1.24,3,184.52,3,10.74,1,53.97,1,15.03,1,3.19,1,100.2,1,4.76,1,1010.9,1,13.64,1,65.35,1
2006,03,01,15,50,176.59,3,-1.72,3,176.59,3,10.63,1,53.9,1,14.86,1,2.89,1,105.5,1,5.33,1,1010.9,1,13.65,1,66.22,1
2006,03,01,15,55,173.43,3,-1.55,3,173.43,3,10.67,1,52.64,1,14.68,1,3.66,1,91.8,1,5.9,1,1010.9,1,13.65,1,67.1,1
2006,03,01,16,00,168.74,3,-2.02,3,168.74,3,10.46,1,53.31,1,14.52,1,2.89,1,93.9,1,4.38,1,1011,1,13.66,1,67.98,1
2006,03,01,16,05,168.16,3,-1.61,3,168.16,3,10.44,1,53.08,1,14.36,1,2.68,1,95.5,1,4.19,1,1010.9,1,13.66,1,68.87,1
2006,03,01,16,10,174.15,3,-0.5,3,174.15,3,10.54,1,52.61,1,14.2,1,2.47,1,81.9,1,4,1,1010.8,1,13.66,1,69.77,1
2006,03,01,16,15,179.66,3,-0.78,3,179.66,3,10.37,1,51.92,1,14.05,1,3.65,1,77.9,1,5.33,1,1010.8,1,13.67,1,70.68,1
2006,03,01,16,20,174.89,3,-0.36,3,174.89,3,10.27,1,52.1,1,13.91,1,3.17,1,78.7,1,5.71,1,1010.8,1,13.67,1,71.59,1
2006,03,01,16,25,159.1,3,-0.46,3,159.1,3,10.25,1,52.9,1,13.78,1,3.36,1,91.7,1,5.14,1,1010.6,1,13.67,1,72.51,1
2006,03,01,16,30,136.61,3,-0.82,3,136.61,3,10.06,1,54.18,1,13.67,1,3.33,1,86,1,4.95,1,1010.7,1,13.56,1,73.43,1
2006,03,01,16,35,119.41,3,-2.2,3,119.41,3,9.83,1,54.3,1,13.59,1,3.39,1,103,1,4.76,1,1010.6,1,13.6,1,74.36,1
2006,03,01,16,40,112.01,3,-2.1,3,112.01,3,9.77,1,54.04,1,13.5,1,3.53,1,78.4,1,5.71,1,1010.6,1,13.69,1,75.29,1
2006,03,01,16,45,120.27,3,4.53,3,120.27,3,9.59,1,54.26,1,13.37,1,3.37,1,83.7,1,4.95,1,1010.6,1,13.69,1,76.23,1
2006,03,01,16,50,138.49,3,70.41,3,117.23,3,9.52,1,54.84,1,13.22,1,3.67,1,79.9,1,4.95,1,1010.5,1,13.7,1,77.18,1
2006,03,01,16,55,104.08,3,9.85,3,98.61,3,9.44,1,54.8,1,13.08,1,4.15,1,91.1,1,5.33,1,1010.4,1,13.7,1,78.12,1
2006,03,01,17,00,100.08,3,18.17,3,93.91,3,9.39,1,56.28,1,12.94,1,2.95,1,83.4,1,4.76,1,1010.4,1,13.71,1,79.07,1
2006,03,01,17,05,97.75,3,17.86,3,91.33,3,9.37,1,57.03,1,12.8,1,3.42,1,96.4,1,4.95,1,1010.4,1,13.71,1,80.03,1
2006,03,01,17,10,89.37,1,9.28,1,86.16,1,9.26,1,57.42,1,12.67,1,3.1,1,90.5,1,5.14,1,1010.4,1,13.7,1,80.99,1
2006,03,01,17,15,86.17,1,4.27,1,85.71,1,9.08,1,58.28,1,12.53,1,3.54,1,86.2,1,5.9,1,1010.4,1,13.52,1,81.94,1
2006,03,01,17,20,77.13,1,1.5,1,77.13,1,8.96,1,59.44,1,12.4,1,3.71,1,82.6,1,5.52,1,1010.4,1,13.16,1,82.91,1
2006,03,01,17,25,69.09,1,1.04,1,69.09,1,8.81,1,60.54,1,12.26,1,3.51,1,96.1,1,5.52,1,1010.5,1,13.04,1,83.87,1
2006,03,01,17,30,49.86,1,-1.14,1,49.86,1,8.75,1,62.46,1,12.12,1,2.75,1,83.3,1,4.38,1,1010.6,1,12.95,1,84.82,1
2006,03,01,17,35,29.56,1,-2.74,1,29.56,1,8.61,1,63.84,1,11.96,1,3.42,1,87,1,5.33,1,1010.6,1,12.89,1,85.78,1
2006,03,01,17,40,20.87,1,10.13,1,20.01,1,8.49,1,65.54,1,11.8,1,2.47,1,88.1,1,4.76,1,1010.6,1,12.86,1,86.73,1
2006,03,01,17,45,18.48,1,37.61,1,16.64,1,8.39,1,66.85,1,11.63,1,2.57,1,92.5,1,4.76,1,1010.6,1,12.84,1,87.67,1
2006,03,01,17,50,7.26,1,1.44,1,7.26,1,8.29,1,68.95,1,11.45,1,2.64,1,92.4,1,3.62,1,1010.6,1,12.82,1,88.58,1
2006,03,01,17,55,2.97,1,-1.84,1,2.97,1,8.18,1,70.5,1,11.27,1,3.14,1,92.8,1,4.76,1,1010.6,1,12.81,1,89.46,1
2006,03,01,18,00,0.97,1,-1.95,1,1.02,1,8.09,1,72.3,1,11.08,1,2.58,1,97.5,1,4.19,1,1010.7,1,12.8,1,90.92,1
2006,03,01,18,05,-0.07,1,-1.82,1,0.02,1,8.02,1,74,1,10.9,1,2.55,1,95.6,1,4,1,1010.7,1,12.8,1,91.92,1
2006,03,01,18,10,-0.47,1,-1.53,1,-0.44,1,7.97,1,75.1,1,10.73,1,1.98,1,90.7,1,3.05,1,1010.8,1,12.79,1,92.91,1